Regional Weather Roundup
Issued by NWS

Home | Current Version | Previous Version | Text Only | Print | Product List | Glossary On
Versions: 1 2 3 4 5 6 7 8 9 10 11 12 13 14 15 16 17 18 19 20 21 22 23 24 25 26 27 28 29 30 31 32 33 34 35 36 37 38 39 40 41 42 43 44 45 46 47 48 49 50
504
ASUS43 KTOP 281908
RWRKS

WEATHER ROUNDUP FOR KANSAS
NATIONAL WEATHER SERVICE GOODLAND KS
200 PM CDT THU JUL 28 2016

NOTE:  "FAIR" INDICATES FEW OR NO CLOUDS BELOW 12,000 FEET WITH NO
SIGNIFICANT WEATHER AND/OR OBSTRUCTIONS TO VISIBILITY.

KSZ001>006-013>018-027>032-041>047-282000-
NORTHWEST KANSAS

CITY           SKY/WX    TMP DP  RH WIND       PRES   REMARKS
GOODLAND       SUNNY     80  62  54 E10       30.10F
HAYS           CLOUDY    84  64  51 N5        30.06R
HILL CITY      CLOUDY    82  67  60 NW3       30.07F
RUSSELL        CLOUDY    89  67  47 NE9       30.02S
$$

KSZ061>065-074>080-084>089-282000-
SOUTHWEST KANSAS

CITY           SKY/WX    TMP DP  RH WIND       PRES   REMARKS
DODGE CITY     SUNNY     88  59  37 SE5       30.06S
ELKHART          N/A     89  64  43 MISG        N/A
GARDEN CITY    SUNNY     87  64  46 SE10      30.07R
GREAT BEND     MOSUNNY   88  66  48 NE5       30.02S
LIBERAL        SUNNY     91  63  38 S8        30.05F
PRATT          SUNNY     87  62  41 N7        30.02F
$$

KSZ066>073-081>083-090>101-282000-
SOUTHEAST KANSAS

CITY           SKY/WX    TMP DP  RH WIND       PRES   REMARKS
CHANUTE        SUNNY     89  72  56 NW8       29.96S HX  96
COFFEYVILLE    CLOUDY    91  72  53 S10       29.95S HX  98
HUTCHINSON     MOSUNNY   91  70  49 E12       30.00S HX  96
MEDICINE LODGE   N/A     93  60  33 VRB7      29.98S
NEWTON         PTSUNNY   86  72  62 E7        30.01S
PARSONS        MOSUNNY   91  74  57 NW8       29.96S HX 100
WICHITA INTL   PTSUNNY   91  72  53 NE14G21   29.96F HX  98
WICHITA JABRA  MOSUNNY   91  73  55 NE9       29.98S HX  99
WINFIELD       MOSUNNY   92  71  50 SE5       29.97S HX  98
$$

KSZ007>012-019>026-033>040-048>060-102>105-282000-
NORTHEAST KANSAS

CITY           SKY/WX    TMP DP  RH WIND       PRES   REMARKS
CONCORDIA      SUNNY     88  63  43 NE8       30.00F
EMPORIA        SUNNY     89  67  47 E5        29.98F
LAWRENCE       MOSUNNY   90  68  48 NE6       29.95F
MANHATTAN      SUNNY     89  68  49 NE8       29.97F
MARYSVILLE     PTSUNNY   88  66  48 NE10      29.99S
OLATHE IND     MOSUNNY   88  67  49 N12G17    29.97S
OLATHE EXE     MOSUNNY   90  63  40 N8G18     29.97S
SALINA         MOSUNNY   91  66  43 N12       29.99F
TOPEKA BILLARD SUNNY     91  69  48 NE10      29.95F HX  96
TOPEKA FORBES  SUNNY     91  66  43 NE9G16    29.96F
$$




USA.gov is the U.S. government's official web portal to all federal, state and local government web resources and services.